Time,TemperatureF,DewpointF,PressureIn,WindDirection,WindDirectionDegrees,WindSpeedMPH,WindSpeedGustMPH,Humidity,HourlyPrecipIn,Conditions,Clouds,dailyrainin,SoftwareType,DateUTC
2013-07-31 00:02:00,59.0,-99.9,30.08,NNW,340,6.0,8.0,-999,-99.99,,,-99.99,,2013-07-31 07:02:00,
2013-07-31 00:32:00,60.0,-99.9,30.08,WNW,284,5.0,8.0,-999,-99.99,,,-99.99,,2013-07-31 07:32:00,
2013-07-31 00:52:00,60.0,-99.9,30.08,West,276,6.0,8.0,-999,-99.99,,,-99.99,,2013-07-31 07:52:00,
2013-07-31 02:02:00,60.0,-99.9,30.07,SW,233,1.0,3.0,-999,-99.99,,,-99.99,,2013-07-31 09:02:00,
2013-07-31 03:02:00,59.0,-99.9,30.06,West,278,5.0,7.0,-999,-99.99,,,-99.99,,2013-07-31 10:02:00,
2013-07-31 03:23:00,59.0,-99.9,-100.00,North,-999,-999.0,-999.0,-999,-99.99,,,-99.99,,2013-07-31 10:23:00,
2013-07-31 03:32:00,59.0,-99.9,30.06,NNW,329,4.0,6.0,-999,-99.99,,,-99.99,,2013-07-31 10:32:00,
2013-07-31 03:52:00,59.0,-99.9,30.06,NW,313,3.0,5.0,-999,-99.99,,,-99.99,,2013-07-31 10:52:00,
2013-07-31 04:33:00,59.0,-99.9,30.06,NW,315,5.0,7.0,-999,-99.99,,,-99.99,,2013-07-31 11:33:00,
2013-07-31 04:53:00,58.0,-99.9,30.06,NW,319,7.0,7.0,-999,-99.99,,,-99.99,,2013-07-31 11:53:00,
2013-07-31 05:03:00,58.0,-99.9,30.06,NW,313,6.0,7.0,-999,-99.99,,,-99.99,,2013-07-31 12:03:00,
2013-07-31 05:22:00,58.0,-99.9,30.06,NW,316,4.0,7.0,-999,-99.99,,,-99.99,,2013-07-31 12:22:00,
2013-07-31 06:53:00,58.0,-99.9,30.07,NW,309,4.0,6.0,-999,-99.99,,,-99.99,,2013-07-31 13:53:00,
2013-07-31 07:34:00,58.0,-99.9,30.08,WNW,292,6.0,7.0,-999,-99.99,,,-99.99,,2013-07-31 14:34:00,
2013-07-31 08:02:00,58.0,-99.9,30.08,WNW,290,4.0,7.0,-999,-99.99,,,-99.99,,2013-07-31 15:02:00,
2013-07-31 08:44:00,59.0,-99.9,30.08,NNW,327,3.0,4.0,-999,-99.99,,,-99.99,,2013-07-31 15:44:00,
2013-07-31 09:02:00,59.0,-99.9,30.09,WNW,294,4.0,5.0,-999,-99.99,,,-99.99,,2013-07-31 16:02:00,
2013-07-31 09:53:00,61.0,-99.9,30.09,NNE,20,2.0,5.0,-999,-99.99,,,-99.99,,2013-07-31 16:53:00,
2013-07-31 11:02:00,63.0,-99.9,30.09,North,359,4.0,6.0,-999,-99.99,,,-99.99,,2013-07-31 18:02:00,
2013-07-31 11:23:00,63.0,-99.9,-100.00,North,-999,-999.0,-999.0,-999,-99.99,,,-99.99,,2013-07-31 18:23:00,
2013-07-31 11:43:00,64.0,-99.9,30.09,NW,315,6.0,8.0,-999,-99.99,,,-99.99,,2013-07-31 18:43:00,
2013-07-31 11:52:00,64.0,-99.9,30.09,NNW,330,11.0,12.0,-999,-99.99,,,-99.99,,2013-07-31 18:52:00,
2013-07-31 12:53:00,64.0,-99.9,30.07,North,351,10.0,13.0,-999,-99.99,,,-99.99,,2013-07-31 19:53:00,
2013-07-31 13:53:00,66.0,-99.9,30.06,NW,321,12.0,17.0,-999,-99.99,,,-99.99,,2013-07-31 20:53:00,
2013-07-31 14:03:00,67.0,-99.9,30.06,NW,309,11.0,15.0,-999,-99.99,,,-99.99,,2013-07-31 21:03:00,
2013-07-31 14:53:00,69.0,-99.9,30.05,WNW,301,11.0,14.0,-999,-99.99,,,-99.99,,2013-07-31 21:53:00,
2013-07-31 15:22:00,70.0,-99.9,30.05,NW,304,13.0,17.0,-999,-99.99,,,-99.99,,2013-07-31 22:22:00,
2013-07-31 15:33:00,70.0,-99.9,30.05,WNW,300,10.0,16.0,-999,-99.99,,,-99.99,,2013-07-31 22:33:00,
2013-07-31 15:53:00,70.0,-99.9,30.04,NW,305,16.0,19.0,-999,-99.99,,,-99.99,,2013-07-31 22:53:00,
2013-07-31 16:53:00,68.0,-99.9,30.04,WNW,285,19.0,22.0,-999,-99.99,,,-99.99,,2013-07-31 23:53:00,
2013-07-31 17:43:00,65.0,-99.9,30.04,West,260,18.0,22.0,-999,-99.99,,,-99.99,,2013-08-01 00:43:00,
2013-07-31 18:53:00,63.0,-99.9,30.04,West,263,16.0,21.0,-999,-99.99,,,-99.99,,2013-08-01 01:53:00,
2013-07-31 19:02:00,63.0,-99.9,30.04,WSW,258,18.0,20.0,-999,-99.99,,,-99.99,,2013-08-01 02:02:00,
2013-07-31 19:22:00,63.0,-99.9,30.04,West,266,17.0,19.0,-999,-99.99,,,-99.99,,2013-08-01 02:22:00,
2013-07-31 20:02:00,62.0,-99.9,30.05,West,265,16.0,21.0,-999,-99.99,,,-99.99,,2013-08-01 03:02:00,
2013-07-31 20:53:00,60.0,-99.9,30.05,West,265,15.0,19.0,-999,-99.99,,,-99.99,,2013-08-01 03:53:00,
2013-07-31 21:33:00,60.0,-99.9,30.05,WSW,256,18.0,22.0,-999,-99.99,,,-99.99,,2013-08-01 04:33:00,
2013-07-31 22:53:00,60.0,-99.9,30.05,West,277,11.0,14.0,-999,-99.99,,,-99.99,,2013-08-01 05:53:00,
2013-07-31 23:23:00,60.0,-99.9,30.05,WNW,283,15.0,19.0,-999,-99.99,,,-99.99,,2013-08-01 06:23:00,
2013-07-31 23:53:00,60.0,-99.9,30.05,WNW,282,15.0,17.0,-999,-99.99,,,-99.99,,2013-08-01 06:53:00,